Location: Brienzwiler
(46.7508°N, 8.1014°E)
Time: 08:06:45
(UTC+00:00)

Terra - Pass Details

Date: 05 July 2020
Orbit: 701 x 703 km, 98.2° (Epoch: 06 August)

Event Time Altitude Azimuth Distance (km) Brightness Sun altitude
Exits shadow 22:10:31 18° 214° (SW) 1,698 3.5 -18.2°
Maximum altitude 22:13:16 31° 264° (W) 1,231 3.2 -18.3°
Drops below altitude 10° 22:17:30 10° 327° (NNW) 2,181 5.5 -18.5°
Sets 22:20:00 0° 338° (NNW) 3,104 6.8 -18.7°
